Temp
-14 -14 -15 -16 -17 -18 -18 -18 -19 -18 -18 -18 -18 -19 -18 -19 -19 -19 -19 -20 -20 -19 -19 -19 -18 -17 -16 -16 -16 -15 -14 -13 -13 -12 -12 -11 -11 -11 -11 -11 -10 -10 -10 -11 -11 -11 -11
-15 -15 -15 -16 -16 -17 -18 -18 -18 -17 -18 -18 -18 -18 -18 -19 -19 -20 -20 -20 -20 -19 -19 -18 -18 -17 -16 -16 -16 -15 -14 -14 -13 -13 -12 -12 -12 -11 -11 -11 -10 -10 -10 -11 -11 -11 -11
-15 -15 -16 -16 -17 -17 -17 -18 -18 -18 -18 -18 -18 -18 -18 -18 -19 -19 -19 -20 -19 -19 -18 -17 -17 -17 -17 -16 -16 -16 -15 -14 -13 -13 -12 -12 -12 -11 -11 -11 -10 -11 -11 -11 -11 -11 -11
-15 -15 -16 -17 -17 -17 -17 -17 -18 -18 -19 -19 -18 -18 -18 -18 -18 -18 -19 -19 -19 -19 -18 -17 -17 -17 -17 -17 -17 -16 -16 -14 -14 -13 -13 -12 -12 -12 -11 -11 -11 -11 -11 -11 -11 -11 -11
-15 -15 -16 -16 -17 -17 -17 -17 -18 -18 -19 -19 -19 -19 -19 -19 -18 -18 -18 -18 -18 -18 -18 -18 -18 -18 -18 -17 -17 -16 -15 -14 -13 -13 -13 -13 -12 -12 -12 -11 -11 -11 -11 -11 -11 -11 -11
-15 -15 -16 -16 -16 -17 -17 -18 -18 -18 -18 -19 -19 -20 -20 -19 -19 -19 -19 -19 -18 -18 -18 -18 -19 -19 -18 -17 -17 -16 -15 -14 -13 -13 -13 -13 -13 -12 -12 -12 -11 -11 -11 -11 -11 -11 -11
-15 -15 -16 -16 -17 -17 -17 -17 -18 -18 -18 -18 -19 -20 -19 -19 -20 -19 -19 -19 -19 -19 -19 -18 -18 -18 -18 -17 -16 -16 -15 -14 -13 -13 -13 -13 -13 -12 -12 -12 -12 -12 -12 -11 -11 -11 -11
-15 -15 -15 -16 -16 -17 -17 -17 -17 -18 -18 -18 -19 -19 -19 -19 -19 -19 -19 -18 -18 -18 -18 -18 -18 -18 -18 -17 -16 -15 -14 -14 -13 -13 -13 -13 -13 -12 -12 -12 -12 -12 -12 -11 -11 -11 -11
-15 -15 -15 -16 -16 -16 -17 -17 -17 -18 -18 -17 -18 -18 -18 -19 -18 -18 -18 -18 -18 -18 -17 -18 -18 -18 -18 -17 -16 -15 -14 -14 -13 -13 -13 -13 -13 -13 -12 -12 -12 -12 -12 -11 -11 -11 -11
-15 -15 -15 -16 -16 -16 -16 -17 -17 -17 -18 -18 -18 -18 -18 -19 -18 -18 -18 -18 -18 -18 -17 -17 -18 -18 -17 -16 -16 -14 -14 -14 -13 -13 -13 -13 -12 -12 -12 -12 -12 -12 -12 -11 -11 -11 -11
-14 -15 -15 -15 -16 -16 -16 -16 -17 -17 -17 -17 -17 -18 -18 -18 -18 -18 -18 -18 -18 -18 -17 -17 -18 -17 -16 -15 -15 -14 -14 -13 -13 -13 -13 -12 -12 -12 -12 -12 -12 -12 -11 -11 -11 -11 -11
-14 -15 -15 -16 -16 -16 -16 -16 -16 -17 -17 -17 -17 -17 -17 -18 -17 -18 -17 -17 -17 -17 -17 -17 -17 -16 -15 -14 -14 -14 -13 -13 -13 -13 -12 -12 -12 -12 -12 -12 -12 -12 -12 -11 -11 -11 -11
-14 -15 -15 -15 -16 -16 -16 -16 -16 -16 -16 -16 -16 -17 -17 -17 -17 -17 -17 -16 -16 -16 -16 -16 -16 -15 -14 -14 -14 -13 -13 -13 -13 -12 -12 -12 -12 -12 -12 -12 -12 -12 -12 -12 -12 -12 -12
-15 -15 -15 -15 -16 -16 -16 -16 -16 -16 -16 -16 -16 -16 -16 -16 -16 -16 -16 -16 -16 -16 -15 -15 -15 -15 -15 -14 -14 -13 -13 -13 -12 -12 -12 -12 -12 -12 -12 -12 -12 -12 -12 -13 -12 -12 -12
-14 -15 -15 -15 -15 -16 -16 -15 -15 -15 -15 -15 -15 -15 -15 -16 -15 -15 -15 -15 -15 -15 -15 -15 -15 -15 -14 -14 -14 -14 -13 -13 -13 -13 -13 -13 -13 -13 -13 -13 -13 -13 -13 -13 -13 -13 -12
-14 -14 -14 -15 -15 -16 -16 -15 -15 -15 -15 -14 -14 -14 -15 -15 -15 -15 -15 -15 -15 -15 -15 -15 -15 -15 -14 -14 -14 -14 -14 -14 -13 -13 -13 -13 -13 -13 -13 -13 -13 -13 -13 -13 -13 -13 -13
-14 -15 -14 -14 -15 -15 -15 -15 -15 -15 -14 -14 -14 -14 -14 -14 -14 -14 -14 -14 -14 -14 -14 -14 -14 -14 -14 -14 -14 -14 -13 -13 -13 -13 -13 -13 -13 -13 -13 -13 -13 -13 -13 -13 -14 -14 -14
-14 -14 -14 -14 -14 -14 -15 -15 -15 -15 -14 -14 -14 -14 -13 -13 -14 -14 -14 -14 -14 -14 -14 -14 -14 -14 -14 -14 -14 -14 -14 -14 -14 -14 -14 -13 -13 -13 -13 -13 -13 -13 -14 -14 -14 -14 -14
-15 -14 -14 -14 -14 -14 -14 -14 -15 -15 -15 -14 -14 -14 -14 -13 -13 -13 -13 -13 -13 -13 -13 -13 -14 -14 -14 -14 -14 -14 -14 -14 -14 -14 -13 -13 -13 -14 -14 -14 -14 -14 -14 -14 -14 -14 -14
-14 -14 -14 -13 -13 -14 -14 -14 -14 -15 -15 -15 -14 -14 -14 -14 -14 -13 -13 -13 -13 -13 -13 -13 -13 -13 -13 -13 -13 -13 -13 -13 -13 -13 -13 -13 -14 -14 -14 -14 -14 -14 -14 -14 -14 -14 -14
-14 -14 -13 -14 -13 -13 -13 -13 -13 -14 -14 -14 -14 -14 -14 -14 -14 -14 -14 -14 -13 -13 -13 -13 -13 -13 -13 -13 -13 -13 -13 -13 -13 -13 -13 -13 -13 -13 -14 -13 -13 -13 -13 -13 -14 -14 -14
-15 -14 -14 -14 -14 -14 -13 -13 -14 -13 -13 -14 -14 -14 -14 -14 -14 -14 -14 -14 -14 -14 -14 -14 -13 -13 -13 -13 -13 -13 -13 -13 -13 -14 -14 -14 -13 -14 -14 -14 -14 -13 -14 -14 -14 -14 -14
-15 -14 -14 -14 -14 -14 -14 -14 -13 -13 -13 -13 -13 -13 -13 -13 -14 -14 -14 -14 -14 -14 -14 -14 -14 -14 -14 -14 -14 -14 -14 -14 -14 -14 -14 -14 -14 -14 -14 -14 -14 -14 -15 -15 -15 -15 -15
-14 -14 -14 -14 -14 -14 -14 -14 -13 -13 -13 -13 -13 -13 -13 -13 -13 -13 -13 -13 -13 -13 -14 -14 -14 -14 -14 -14 -14 -14 -14 -14 -14 -14 -14 -14 -14 -14 -14 -14 -14 -14 -14 -15 -15 -15 -15
-14 -14 -14 -14 -14 -14 -14 -13 -13 -13 -13 -13 -13 -13 -13 -13 -14 -14 -14 -14 -14 -13 -13 -13 -13 -13 -13 -14 -14 -14 -14 -14 -14 -14 -15 -15 -15 -15 -14 -14 -14 -14 -14 -15 -15 -15 -15
-14 -14 -13 -14 -14 -14 -14 -13 -13 -13 -14 -13 -14 -13 -13 -13 -14 -14 -14 -14 -14 -14 -14 -14 -14 -14 -14 -14 -14 -14 -14 -14 -14 -14 -15 -15 -15 -15 -15 -15 -14 -15 -15 -15 -16 -15 -16
-14 -14 -14 -14 -14 -14 -14 -14 -13 -13 -13 -13 -13 -13 -13 -13 -13 -14 -14 -14 -14 -14 -14 -14 -14 -14 -14 -14 -14 -14 -14 -15 -15 -15 -15 -15 -15 -15 -15 -15 -14 -15 -15 -16 -16 -17 -17
-14 -13 -13 -14 -14 -14 -14 -14 -14 -14 -14 -13 -13 -13 -13 -13 -13 -14 -14 -14 -14 -14 -14 -14 -15 -15 -15 -15 -15 -15 -15 -15 -15 -15 -15 -15 -16 -16 -16 -16 -16 -16 -16 -17 -17 -17 -17
-14 -14 -14 -14 -14 -14 -14 -14 -14 -14 -14 -14 -14 -14 -14 -14 -14 -14 -15 -15 -15 -15 -15 -15 -16 -16 -15 -16 -16 -16 -16 -16 -15 -16 -16 -16 -16 -17 -17 -17 -18 -17 -18 -19 -19 -19 -19
Height
5734 5726 5717 5708 5697 5688 5679 5672 5665 5657 5652 5646 5641 5638 5632 5627 5625 5627 5628 5633 5640 5647 5654 5663 5675 5686 5698 5705 5716 5729 5742 5757 5770 5782 5792 5801 5809 5816 5822 5829 5835 5838 5841 5844 5847 5851 5854
5735 5728 5719 5711 5702 5692 5684 5677 5669 5662 5657 5651 5646 5640 5635 5630 5629 5630 5633 5639 5644 5653 5661 5670 5678 5687 5697 5706 5716 5729 5742 5755 5768 5780 5790 5797 5806 5812 5819 5825 5831 5835 5838 5842 5845 5848 5851
5737 5730 5722 5715 5707 5698 5689 5681 5674 5668 5661 5655 5650 5643 5638 5635 5633 5634 5640 5647 5653 5659 5664 5672 5681 5688 5697 5707 5718 5731 5742 5755 5767 5778 5787 5796 5804 5811 5817 5822 5827 5831 5836 5839 5843 5846 5848
5741 5734 5727 5719 5712 5704 5696 5688 5681 5674 5666 5660 5653 5649 5645 5641 5640 5641 5645 5652 5659 5664 5671 5676 5682 5691 5700 5710 5720 5732 5744 5755 5766 5777 5786 5794 5802 5809 5814 5820 5825 5829 5833 5837 5840 5843 5845
5747 5739 5731 5724 5717 5710 5703 5695 5688 5682 5675 5668 5662 5657 5653 5649 5648 5648 5649 5653 5660 5667 5672 5679 5685 5693 5703 5714 5724 5735 5746 5756 5767 5777 5785 5793 5801 5807 5813 5818 5823 5826 5831 5834 5837 5839 5841
5752 5744 5736 5728 5721 5716 5709 5702 5695 5689 5684 5678 5672 5668 5663 5660 5659 5660 5659 5661 5665 5671 5676 5683 5690 5701 5709 5718 5729 5738 5748 5758 5768 5777 5785 5793 5800 5806 5811 5816 5821 5824 5828 5830 5833 5836 5837
5757 5750 5742 5734 5727 5720 5715 5709 5703 5696 5691 5687 5682 5678 5675 5672 5671 5670 5671 5672 5676 5680 5684 5691 5698 5707 5715 5723 5733 5741 5750 5760 5770 5779 5787 5794 5800 5805 5809 5814 5818 5822 5825 5827 5830 5832 5833
5760 5754 5748 5741 5733 5727 5720 5715 5709 5705 5701 5696 5692 5688 5685 5682 5680 5680 5681 5683 5685 5691 5694 5700 5704 5713 5721 5729 5738 5744 5754 5765 5773 5781 5788 5795 5800 5805 5808 5812 5816 5819 5822 5824 5826 5827 5828
5765 5759 5753 5746 5740 5733 5727 5721 5717 5711 5708 5704 5700 5697 5695 5691 5690 5690 5690 5692 5695 5697 5703 5707 5712 5719 5728 5736 5741 5749 5758 5766 5775 5783 5789 5795 5800 5804 5808 5811 5814 5816 5819 5821 5822 5822 5823
5768 5763 5758 5752 5746 5740 5734 5728 5723 5719 5715 5712 5709 5706 5704 5702 5702 5700 5700 5701 5704 5707 5712 5717 5721 5728 5736 5740 5747 5754 5762 5771 5778 5784 5790 5795 5799 5803 5806 5809 5812 5813 5815 5816 5817 5817 5817
5771 5767 5762 5756 5751 5746 5740 5734 5730 5726 5723 5720 5717 5715 5713 5712 5711 5710 5712 5712 5714 5718 5721 5725 5729 5736 5741 5747 5754 5759 5766 5773 5779 5785 5791 5795 5798 5801 5804 5806 5808 5810 5811 5811 5811 5811 5811
5775 5770 5765 5760 5755 5750 5745 5740 5736 5732 5729 5727 5725 5723 5722 5721 5720 5720 5721 5722 5724 5728 5730 5732 5736 5742 5748 5753 5758 5764 5769 5775 5780 5785 5789 5793 5796 5799 5801 5803 5804 5805 5806 5806 5806 5805 5805
5777 5773 5769 5764 5759 5754 5749 5744 5741 5737 5734 5732 5731 5730 5729 5729 5729 5728 5729 5730 5733 5733 5735 5739 5742 5746 5751 5756 5761 5766 5771 5776 5780 5785 5788 5791 5793 5796 5797 5799 5800 5800 5800 5799 5799 5798 5798
5779 5775 5771 5766 5761 5756 5752 5747 5744 5741 5738 5735 5734 5733 5734 5734 5734 5735 5736 5737 5737 5738 5741 5743 5747 5751 5754 5758 5762 5767 5771 5775 5779 5782 5785 5787 5791 5791 5793 5793 5794 5794 5794 5793 5790 5791 5791
5780 5777 5773 5768 5763 5758 5754 5750 5746 5744 5741 5739 5737 5737 5736 5737 5737 5738 5740 5741 5742 5744 5746 5748 5751 5754 5757 5761 5765 5767 5770 5774 5777 5779 5783 5784 5786 5787 5787 5788 5789 5788 5787 5787 5784 5783 5782
5781 5778 5775 5770 5766 5761 5756 5751 5747 5745 5744 5743 5741 5740 5740 5740 5740 5741 5743 5744 5746 5748 5750 5753 5755 5756 5759 5762 5765 5767 5770 5772 5774 5776 5778 5780 5781 5782 5782 5782 5782 5782 5782 5780 5778 5775 5774
5781 5778 5777 5773 5768 5764 5760 5755 5751 5746 5744 5744 5744 5744 5743 5743 5743 5744 5745 5747 5748 5750 5753 5755 5757 5759 5761 5763 5765 5766 5769 5771 5772 5774 5775 5775 5777 5779 5777 5777 5776 5776 5774 5772 5770 5769 5766
5781 5778 5777 5774 5771 5767 5763 5759 5755 5752 5749 5747 5744 5746 5745 5746 5747 5746 5748 5749 5750 5752 5753 5755 5757 5759 5761 5763 5765 5767 5768 5769 5770 5771 5772 5772 5771 5772 5772 5771 5770 5769 5767 5765 5763 5764 5762
5778 5776 5775 5774 5772 5770 5766 5763 5759 5756 5753 5751 5748 5746 5747 5747 5748 5748 5749 5750 5751 5753 5754 5755 5757 5758 5760 5761 5763 5763 5764 5765 5766 5766 5766 5766 5766 5765 5765 5765 5764 5763 5761 5760 5758 5757 5758
5774 5775 5772 5771 5770 5770 5767 5765 5763 5760 5758 5755 5753 5751 5750 5750 5749 5749 5749 5750 5751 5752 5753 5754 5755 5757 5758 5759 5759 5759 5760 5760 5760 5760 5760 5760 5760 5759 5759 5758 5758 5757 5756 5753 5751 5750 5748
5773 5771 5771 5770 5769 5768 5767 5764 5764 5763 5761 5760 5757 5755 5753 5753 5751 5751 5751 5751 5751 5751 5752 5753 5754 5754 5755 5755 5756 5756 5756 5756 5756 5756 5756 5756 5755 5754 5752 5751 5751 5750 5748 5744 5742 5739 5735
5767 5768 5767 5766 5765 5766 5765 5764 5761 5760 5760 5760 5759 5758 5756 5754 5753 5753 5751 5752 5752 5752 5751 5752 5752 5752 5751 5751 5752 5751 5752 5752 5751 5750 5749 5748 5747 5746 5746 5742 5740 5742 5741 5735 5732 5729 5725
5761 5762 5763 5763 5762 5761 5761 5761 5761 5758 5757 5756 5758 5757 5757 5756 5754 5753 5752 5751 5751 5751 5750 5749 5748 5748 5748 5748 5747 5747 5746 5745 5744 5743 5742 5741 5739 5737 5737 5734 5729 5731 5731 5726 5723 5719 5715
5755 5756 5758 5758 5758 5757 5756 5756 5756 5756 5756 5755 5752 5752 5753 5752 5751 5751 5750 5750 5749 5748 5748 5747 5746 5746 5746 5744 5743 5742 5741 5740 5738 5736 5735 5733 5730 5727 5725 5724 5721 5722 5718 5715 5712 5708 5704
5747 5748 5750 5751 5751 5751 5751 5751 5750 5751 5751 5750 5749 5748 5747 5747 5747 5747 5746 5743 5743 5744 5743 5743 5743 5742 5741 5739 5737 5736 5735 5733 5732 5730 5728 5725 5721 5717 5714 5713 5711 5709 5706 5704 5699 5695 5691
5737 5738 5741 5742 5744 5744 5744 5744 5744 5745 5745 5744 5743 5743 5741 5740 5741 5740 5740 5741 5740 5737 5735 5734 5733 5732 5732 5732 5730 5729 5727 5725 5723 5722 5721 5717 5712 5709 5704 5698 5695 5694 5693 5688 5685 5681 5680
5728 5727 5729 5732 5733 5733 5733 5735 5735 5735 5735 5737 5736 5736 5735 5734 5733 5732 5731 5731 5730 5729 5729 5728 5726 5724 5721 5720 5719 5718 5717 5715 5712 5711 5709 5706 5703 5698 5692 5685 5683 5682 5677 5672 5669 5668 5659
5716 5717 5718 5719 5721 5723 5723 5722 5723 5723 5723 5724 5724 5725 5726 5725 5723 5723 5722 5721 5718 5717 5717 5715 5715 5715 5712 5710 5707 5705 5702 5701 5700 5699 5695 5693 5688 5683 5676 5670 5667 5666 5661 5659 5652 5646 5643
5703 5705 5704 5705 5707 5707 5711 5711 5709 5710 5711 5713 5712 5711 5711 5712 5713 5712 5710 5708 5707 5706 5704 5703 5702 5699 5697 5697 5695 5692 5689 5686 5685 5681 5679 5675 5670 5665 5662 5655 5648 5649 5641 5638 5634 5629 5625
Wind_Speed
35 39 41 41 44 45 41 37 31 33 27 21 22 21 23 16 11 4 12 24 38 50 37 24 31 36 36 31 52 56 59 59 57 53 48 43 38 35 35 33 31 27 27 27 28 28 28
35 38 40 41 41 46 46 44 39 35 27 25 22 23 25 17 12 9 17 28 46 40 39 32 28 34 32 34 48 51 53 53 54 49 47 42 38 37 35 32 31 27 27 27 27 27 26
36 36 38 40 40 42 42 45 44 38 30 25 24 26 23 21 14 10 24 28 33 37 34 30 30 30 30 36 45 46 45 47 50 47 44 40 38 36 34 32 30 27 26 25 25 25 24
40 35 36 37 38 38 40 40 40 39 34 30 29 29 27 26 23 14 17 31 27 32 27 29 30 31 32 38 44 42 43 45 46 45 42 39 37 35 33 29 27 25 24 24 22 23 23
39 38 34 35 35 36 39 36 35 33 34 33 29 28 27 25 26 24 21 23 30 27 25 23 29 36 38 43 44 44 44 45 45 42 39 37 35 34 31 28 26 24 22 21 22 22 22
42 39 38 33 34 35 37 41 34 32 31 31 33 30 32 28 26 21 25 30 30 29 30 31 36 41 43 43 45 46 44 43 42 39 36 34 32 31 29 27 24 22 21 22 21 21 22
41 42 40 38 33 33 35 37 38 33 29 31 31 33 32 31 28 26 26 26 31 31 37 36 40 41 42 45 43 42 41 40 38 34 32 31 30 29 27 25 24 23 22 21 21 21 22
38 39 41 39 37 33 31 34 36 36 29 28 28 32 29 29 29 27 25 24 27 32 34 35 38 41 41 39 37 38 37 35 32 30 29 28 27 26 24 23 22 21 20 21 21 22 22
35 37 37 38 39 36 33 30 31 33 34 30 27 30 27 30 31 29 26 22 23 23 32 33 39 37 36 35 34 34 32 30 29 27 26 25 24 23 21 21 20 19 19 20 21 23 23
33 34 36 36 35 37 35 32 28 28 30 29 30 28 27 28 28 26 23 22 27 29 29 32 37 35 33 31 30 31 28 26 25 23 22 21 20 19 19 18 18 18 20 21 23 25 26
31 32 33 34 34 33 33 33 30 25 25 27 27 27 27 26 27 30 28 29 24 19 30 32 31 32 29 29 27 26 24 23 21 20 18 18 18 17 17 18 19 20 22 24 25 27 28
29 32 33 33 32 30 30 29 28 26 22 21 22 24 23 23 25 25 23 20 18 18 22 26 30 29 28 26 26 23 22 20 18 17 16 16 17 17 18 19 21 22 24 26 28 30 33
27 29 32 33 33 28 27 25 24 22 20 18 16 17 18 19 22 20 17 17 14 14 23 24 27 28 28 26 24 23 21 19 18 17 16 15 17 18 20 22 24 26 28 31 33 34 34
26 28 30 31 32 28 26 23 20 18 17 16 15 12 13 15 16 15 12 10 11 20 18 22 22 23 24 23 24 23 22 21 20 20 21 21 22 23 25 26 27 29 30 31 35 34 35
26 27 30 32 31 30 25 21 18 16 15 14 15 12 10 10 11 12 12 14 14 12 17 16 18 19 20 20 20 21 21 22 22 23 23 24 25 25 26 28 29 28 29 32 35 37 38
26 26 28 30 31 31 25 21 18 15 14 12 13 14 11 8 9 10 12 12 11 12 11 12 12 15 15 16 16 17 20 20 21 22 23 24 25 26 27 28 29 31 32 33 34 36 36
25 23 27 30 30 30 25 20 17 15 13 12 10 12 14 13 9 7 8 9 9 9 9 8 9 11 13 14 15 15 16 18 20 21 22 24 25 25 27 29 31 31 32 32 32 32 31
25 19 21 24 26 27 27 19 17 18 16 14 11 9 11 14 15 12 8 4 4 6 8 8 9 9 11 12 13 15 16 18 20 22 24 26 27 29 29 29 29 29 27 27 28 28 27
19 16 17 17 20 23 24 22 17 15 16 15 12 10 7 8 10 12 13 10 5 2 2 6 8 9 11 13 15 16 18 19 21 22 23 24 26 26 26 26 25 24 26 27 28 30 29
16 18 14 13 13 16 19 21 19 16 14 14 14 11 9 7 5 5 6 7 8 7 5 3 2 5 8 11 13 14 16 17 18 19 20 21 21 22 22 23 23 24 27 30 34 34 36
21 18 17 14 15 14 14 15 17 16 15 14 12 13 13 9 7 6 2 3 5 5 5 4 4 5 6 8 8 10 12 13 15 17 18 19 20 23 25 27 27 28 30 35 37 39 43
23 24 23 20 16 14 14 12 10 11 12 11 10 10 10 10 9 7 7 5 3 2 5 7 10 13 14 15 17 18 19 21 22 24 25 27 28 30 31 36 38 35 36 41 44 45 47
26 26 26 24 23 18 15 14 13 10 10 10 11 9 9 8 6 6 6 5 5 4 3 1 3 6 8 12 15 19 22 24 25 28 31 31 33 34 32 35 39 37 32 36 39 40 44
32 30 30 26 24 22 18 15 16 15 14 14 13 15 15 12 11 10 10 11 11 11 11 11 12 13 14 15 16 17 17 19 20 23 24 25 27 29 29 30 34 32 33 34 35 38 41
37 35 33 34 29 26 24 21 20 19 20 20 18 17 18 19 18 18 18 15 15 17 17 18 18 21 23 23 23 24 25 27 28 30 31 33 35 38 40 40 42 43 43 42 45 48 48
36 36 36 34 32 30 29 28 27 27 26 26 26 26 24 23 23 24 24 26 26 24 24 26 27 26 27 29 30 30 29 31 35 37 36 39 41 44 47 51 52 52 51 52 52 55 52
41 40 39 38 36 34 33 32 32 33 32 32 30 31 30 30 30 29 28 28 29 30 31 33 32 32 34 34 36 37 38 38 40 41 42 45 47 50 53 57 58 57 58 60 61 59 61
48 46 44 43 42 41 40 38 38 37 36 35 35 35 34 35 36 34 33 34 35 36 38 38 37 37 40 40 41 42 45 45 47 48 50 52 54 56 57 60 62 63 65 64 66 68 69
55 55 51 49 48 47 46 46 45 44 44 41 41 40 39 40 39 40 39 40 41 40 42 43 44 43 45 45 47 50 52 53 55 57 56 57 59 61 62 63 66 65 66 67 69 71 71
Wind_Direction
23 22 24 27 25 27 32 37 44 55 54 46 43 28 44 46 107 179 156 172 171 176 184 171 181 175 187 191 192 193 194 198 200 201 202 199 200 204 207 210 214 213 217 216 213 217 221
23 26 28 31 30 27 30 35 34 37 42 45 45 38 42 51 80 119 160 170 169 172 180 181 163 175 181 183 186 188 188 193 198 198 197 195 196 200 203 209 213 213 216 219 220 222 226
27 27 27 31 31 28 26 27 33 34 33 39 48 35 46 55 69 134 151 155 171 171 176 183 186 179 178 178 179 180 180 187 193 195 192 193 196 199 203 210 212 211 215 220 225 230 234
30 27 30 30 32 33 31 27 29 31 32 42 51 51 42 60 71 147 125 144 170 175 159 180 186 178 179 172 172 171 178 183 189 191 190 191 196 200 203 208 213 215 220 224 228 235 238
30 30 29 31 32 35 36 31 28 31 36 44 46 51 53 60 76 87 104 122 158 174 166 167 174 170 169 164 164 171 175 181 185 187 189 191 196 201 202 206 212 216 221 227 230 238 245
32 31 31 30 30 31 35 37 32 32 43 51 52 60 67 74 79 87 112 135 147 166 166 169 155 156 159 162 165 166 171 178 182 185 188 192 197 201 202 205 212 217 222 230 236 243 252
31 33 32 30 31 30 30 36 40 39 42 52 62 68 67 77 81 93 104 111 124 133 135 144 151 152 158 160 160 162 167 174 179 183 188 193 198 202 204 208 214 220 228 235 243 248 255
31 31 33 33 29 32 32 30 33 42 49 61 63 67 70 72 83 86 100 110 125 133 140 149 152 154 149 150 152 155 162 171 177 183 189 194 200 204 208 213 219 226 234 243 251 257 263
28 30 29 32 33 29 32 34 32 34 45 53 70 71 70 65 76 72 73 90 123 135 139 144 140 138 140 144 145 151 159 167 177 184 190 196 203 208 213 219 227 234 242 250 257 263 269
23 27 29 26 31 32 29 31 36 35 38 51 64 67 74 74 75 75 78 94 100 108 132 138 129 134 139 139 143 149 158 167 176 184 191 199 207 214 220 226 234 241 248 253 260 266 271
19 23 27 27 23 28 31 29 30 39 40 44 59 73 74 75 79 78 82 89 88 100 126 129 129 130 135 140 142 147 155 164 173 182 192 202 210 218 226 234 241 247 254 259 265 270 277
14 16 18 22 22 21 25 29 29 33 43 48 53 70 77 85 83 85 94 102 103 114 125 123 127 136 141 143 145 148 155 164 172 183 195 206 215 224 232 240 248 254 259 264 269 274 277
12 12 12 15 17 20 19 23 28 32 36 48 58 68 76 84 87 85 92 113 120 134 131 142 146 150 149 151 152 156 163 170 182 188 199 211 221 230 238 245 251 257 262 268 270 273 278
9 9 10 14 14 18 20 21 26 32 38 45 54 70 82 89 88 90 103 113 133 141 141 148 154 159 161 163 165 170 177 186 196 205 216 222 232 236 244 251 257 262 268 271 276 279 282
2 6 7 7 10 14 21 27 23 30 37 49 55 58 74 89 99 93 96 112 127 136 147 156 163 168 173 177 183 188 194 202 210 219 228 236 242 250 256 260 264 267 271 274 278 283 287
354 0 3 5 7 7 15 32 41 45 46 43 60 63 64 81 94 100 108 116 127 136 144 157 171 180 188 194 201 208 213 220 228 234 240 248 254 256 260 263 267 270 274 277 280 283 285
344 350 358 1 6 6 7 26 44 56 59 61 63 68 73 77 76 98 117 129 137 141 151 162 174 190 198 206 213 222 227 232 239 244 248 251 254 257 263 267 270 274 276 277 279 281 285
332 343 353 360 5 5 6 14 42 51 59 61 77 79 81 80 83 87 81 95 146 165 183 197 204 208 217 225 232 240 245 248 250 255 258 262 266 267 269 270 273 276 276 277 281 285 286
318 329 339 354 0 3 4 6 13 41 53 58 65 85 102 99 94 91 92 94 95 96 236 240 234 235 237 244 249 252 256 260 265 268 269 271 274 277 278 280 280 279 280 282 283 286 288
300 308 321 333 350 358 6 2 4 9 20 39 50 64 79 89 95 119 125 117 116 111 108 118 231 260 264 268 269 268 268 270 271 273 274 276 277 278 278 278 277 279 280 282 284 287 284
295 293 295 307 322 339 354 6 359 358 359 11 27 47 57 61 74 76 64 211 203 195 198 202 215 230 248 257 263 264 266 271 274 276 275 274 272 274 275 276 275 275 277 278 280 280 281
288 290 291 290 300 312 320 334 360 353 344 343 358 8 24 38 44 55 66 66 60 281 261 260 261 260 256 257 258 259 265 268 269 268 268 270 272 272 273 277 276 274 277 279 280 282 284
279 283 287 293 295 295 302 309 320 330 331 324 323 320 327 335 343 359 2 11 12 8 357 294 286 281 285 286 281 277 276 274 272 274 276 279 280 281 281 280 283 289 285 283 287 289 289
279 281 284 282 284 288 289 295 299 301 308 309 308 301 297 293 294 298 301 303 305 304 302 302 300 300 299 295 293 293 291 291 291 289 289 288 286 285 285 283 284 287 286 284 285 284 285
276 277 282 285 281 282 284 285 286 286 292 290 288 289 286 286 284 285 284 277 281 289 288 288 294 299 299 295 294 295 294 291 292 292 292 291 290 290 289 289 290 292 292 292 290 289 288
270 273 276 276 278 279 279 282 284 288 289 288 288 288 288 287 287 289 286 288 289 283 280 282 282 283 287 290 291 292 292 293 294 293 297 297 294 292 294 293 294 294 293 289 288 285 289
269 271 272 274 275 276 276 279 284 287 290 289 290 287 286 285 284 283 283 285 288 288 289 289 288 287 286 287 288 289 290 291 292 293 294 294 293 293 293 291 289 290 288 287 288 290 286
267 267 268 271 272 274 275 276 278 278 281 281 285 287 286 285 283 279 279 280 279 280 283 285 285 287 289 288 288 289 289 291 292 294 295 294 291 287 284 284 284 285 284 285 284 284 285
266 269 268 270 271 270 274 276 278 280 281 280 279 279 280 277 277 277 275 275 277 278 280 281 283 282 284 287 288 288 291 291 293 293 292 288 286 285 283 284 284 286 286 286 285 286 286